Location: Hamilton
(37.7830°S, 175.2830°E)
Time: 15:10:19
(UTC+13:00)

Cosmos 1818 - Pass Details

Date: 24 January 2019
Orbit: 771 x 802 km, 65.0° (Epoch: 15 February)

Event Time Altitude Azimuth Distance (km) Brightness Sun altitude
Exits shadow 23:47:55 25° 295° (WNW) 1,536 5.0 -28.1°
Maximum altitude 23:50:42 47° 235° (SW) 1,040 4.4 -28.3°
Drops below altitude 10° 23:55:53 10° 161° (SSE) 2,349 6.5 -28.8°
Sets 23:58:24 0° 155° (SSE) 3,280 7.3 -29.0°
